Location: Unspecified
(0.0000°N, 0.0000°E)
Time: 01:41:56
(UTC+01:00)

JASON 3 - Pass Details

Date: 07 October 2020
Orbit: 1332 x 1343 km, 66.0° (Epoch: 27 October)

Event Time Altitude Azimuth Distance (km) Brightness Sun altitude
Rises 21:31:14 0° 339° (NNW) 4,344 ? -25.8°
Reaches altitude 10° 21:34:03 10° 339° (NNW) 3,372 ? -26.5°
Maximum altitude 21:42:15 86° 252° (WSW) 1,343 ? -28.5°
Drops below altitude 10° 21:50:27 10° 161° (SSE) 3,373 ? -30.5°
Sets 21:53:17 0° 161° (SSE) 4,346 ? -31.2°
